Miscellaneous Local Product
Issued by NWS Hastings, NE

Home | Current Version | Previous Version | Graphics & Text | Print | Product List | Glossary On
Versions: 1 2 3 4 5 6 7 8 9 10 11 12 13 14 15 16 17 18 19 20 21 22 23 24 25 26 27 28 29 30 31 32 33 34 35 36 37 38 39 40 41 42 43 44 45 46 47 48 49 50
000
AXUS43 KGID 220002
MISGRI

GID CWA HOURLY WEATHER ROUNDUP
NATIONAL WEATHER SERVICE HASTINGS NE
700 PM CDT TUE MAR 21 2017

NOTE: "FAIR" INDICATES FEW OR NO CLOUDS BELOW 12,000 FEET WITH NO
SIGNIFICANT WEATHER AND/OR OBSTRUCTIONS TO VISIBILITY.

...SOUTH CENTRAL NEBRASKA...

CITY           SKY/WX    TMP DP  RH WIND       PRES   REMARKS
GRAND ISLAND   CLOUDY    43  29  57 NE16      30.34S
HASTINGS       CLOUDY    45  33  63 NE15      30.32S
KEARNEY        CLOUDY    43  30  61 NE15      30.32R
ORD            CLOUDY    39  22  50 NE13      30.35R WCI  31
YORK           MOCLDY    43  23  45 NE15      30.35R
AURORA         CLOUDY    44  28  52 NE15      30.34S
LEXINGTON      CLOUDY    43  32  64 E16       30.31R
HOLDREGE       MOCLDY    45  32  60 E20       30.30R
HEBRON         CLOUDY    49  35  58 NE14      30.30R

...NEBRASKA PANHANDLE...

CITY           SKY/WX    TMP DP  RH WIND       PRES   REMARKS
CHADRON        CLOUDY    41  33  73 E22G30    30.17S
ALLIANCE       CLOUDY    50  25  37 SE21G32   30.15S
SCOTTSBLUFF    CLOUDY    56  32  40 SE20      30.11S
SIDNEY         CLOUDY    53  29  39 SE18      30.18S

...WESTERN AND NORTH CENTRAL NEBRASKA...

CITY           SKY/WX    TMP DP  RH WIND       PRES   REMARKS
VALENTINE      CLOUDY    31  26  82 E12       30.36R WCI  22
AINSWORTH      CLOUDY    31  29  92 E3        30.37R
ONEILL         CLOUDY    34  31  88 NW6       30.38S WCI  29
BROKEN BOW     NOT AVBL
IMPERIAL         N/A     53  23  31 SE16      30.21R
NORTH PLATTE   PTCLDY    42  32  67 E17       30.28R
MCCOOK         PTCLDY    53  27  36 E18G24    30.22S

...EASTERN NEBRASKA...

CITY           SKY/WX    TMP DP  RH WIND       PRES   REMARKS
NORFOLK        CLOUDY    39  25  57 N7        30.36S WCI  34
SO SIOUX CITY  MOCLDY    43  21  41 NE15      30.39R
TEKAMAH        MOCLDY    44  28  53 N9        30.37R
COLUMBUS       PTCLDY    41  25  52 NE14      30.38S
ALBION         CLOUDY    39  29  67 NE9       30.37S WCI  33
OMAHA EPPLEY   MOCLDY    47  25  42 NE10      30.36R
OFFUTT AFB     PTCLDY    45  27  48 NE7       30.35R
MILLARD        MOCLDY    46  28  49 N6        30.36R
LINCOLN        PTCLDY    45  22  40 NE18      30.36R
NEBRASKA CITY  PTCLDY    46  18  32 NE15      30.33R
BEATRICE       CLEAR     49  32  51 NE10G18   30.31R
FALLS CITY     PTCLDY    51  28  41 NE13      30.29R

...NORTHERN KANSAS...

CITY           SKY/WX    TMP DP  RH WIND       PRES   REMARKS
GOODLAND       PTSUNNY   54  29  38 E17       30.17R
HILL CITY      CLEAR     55  26  32 E17       30.23R
NORTON         CLEAR     54  21  28 E14       30.23S
PHILLIPSBURG   CLEAR     55  30  38 NE17      30.25R
HAYS             N/A     56  27  32 E17       30.21R
RUSSELL        MOCLDY    56  25  30 E15       30.21R
CONCORDIA      CLEAR     52  37  56 NE15G21   30.26R
SALINA         CLOUDY    60  26  27 NE15      30.21R
TOPEKA         CLEAR     58  29  33 NE14      30.23R



USA.gov is the U.S. government's official web portal to all federal, state and local government web resources and services.